Location: Bialystok
(53.1167°N, 23.1667°E)
Time: 02:25:27
(UTC+02:00)

ISS - Visible Passes

Search period start: 23 September 2018 00:00
Search period end: 03 October 2018 00:00
Orbit: 403 x 408 km, 51.6° (Epoch: 23 September)

Date Brightness Start Highest point End Pass type
(mag) Time Alt. Az. Time Alt. Az. Time Alt. Az.
23 Sep -1.9 19:37:47 10° S 19:39:38 15° SE 19:39:38 15° SE visible
24 Sep -2.5 20:20:51 10° SW 20:22:54 27° SSW 20:22:54 27° SSW visible
25 Sep -2.5 19:29:22 10° SSW 19:32:07 25° SSE 19:33:18 20° ESE visible
25 Sep -1.4 21:05:01 10° WSW 21:05:59 18° WSW 21:05:59 18° WSW visible
26 Sep -3.5 20:13:12 10° WSW 20:16:15 49° S 20:16:15 49° S visible
27 Sep -3.1 19:21:29 10° SW 19:24:34 38° SSE 19:26:26 20° E visible
27 Sep -1.8 20:57:35 10° W 20:59:06 25° WSW 20:59:06 25° WSW visible
28 Sep -3.9 20:05:41 10° WSW 20:08:57 64° S 20:09:12 61° SE visible
29 Sep -3.5 19:13:49 10° WSW 19:17:03 54° SSE 19:19:14 19° E visible
29 Sep -2.0 20:50:08 10° W 20:51:54 29° W 20:51:54 29° W visible
30 Sep -3.9 19:58:11 10° W 20:01:29 69° S 20:01:54 59° SE visible
01 Oct -3.7 19:06:15 10° WSW 19:09:32 66° S 19:11:53 18° E visible
01 Oct -2.0 20:42:40 10° W 20:44:32 29° WSW 20:44:32 29° WSW visible
02 Oct -3.7 19:50:41 10° W 19:53:58 63° S 19:54:30 52° SE visible
